Parker, WA (98939)

12:21 PM PDT on May 06, 2015 (GMT -0700)
Vicinity I-82 Exit 40 | | Change Station
CLOSE
Current Station
Personal Weather Station
Location: Parker Heights, WA
Elevation: 1013 ft
Nearby Weather Stations

Elev 1013 ft 46.52 °N, 120.45 °W | Updated 1 second ago

Clear
Clear
62.4 °F
Feels Like 62.4 °F
N
3.8
Wind Variable Wind from SE
Gusts 3.8 mph

Today
High -- | Low -- °F
--% Chance of Precip.
Yesterday
High -- | Low -- °F
Precip. -- in
5:40 AM 8:17 PM
Waning Gibbous, 93% visible
Pressure 30.00 in
Visibility 10.0 miles
Clouds Scattered Clouds 8000 ft
Dew Point 29 °F
Humidity 28%
Rainfall in
Snow Depth Not available.
UV 7 out of 12
Pollen 8.00 out of 12
Air Quality Not available.
Flu Activity Sporadic
METAR KYKM 061853Z 11003KT 10SM SCT080 16/M03 A2999 RMK AO2 SLP158 T01561033 $

More Conditions Fewer Conditions

Pressure 30.00 in
Visibility 10.0 miles
Clouds Scattered Clouds 8000 ft
Dew Point 29 °F
Humidity 28%
Rainfall in
Snow Depth Not available.
UV 7 out of 12
Pollen 8.00 out of 12
Air Quality Not available.
Flu Activity Sporadic
METAR KYKM 061853Z 11003KT 10SM SCT080 16/M03 A2999 RMK AO2 SLP158 T01561033 $

More Conditions Fewer Conditions

10-Day Weather Forecast

Almanac

Astronomy

May. 06, 2015 Rise Set
Actual Time
Civil Twilight
Nautical Twilight
Astronomical Twilight
Moon
Length of Visible Light
Length of Day
Tomorrow will be .
, % of the Moon is Illuminated

Today's Extremes

State Highs State Lows

Community

WunderPhotos

Upload Photos

1,818,994 photos uploaded!

WunderBlogs® & News

Nearby

Air Quality

  Air Quality AQ Index Pollutant
Not available.

Snow Depth

Station Depth Elevation

Earthquake Activity

City Distance Mag. Time & Date
Minimum magnitude displayed is 2.5.

Coastal Water Temperatures

Place Temperature

Stations

Nearby Weather Stations

Station Location Temp. Windchill Dew Point Humidity Wind Precip. Elev Updated Type